Weather History for KPKD - April, 2012

Change the Weather History Date:

Thursday, April 12, 2012

  Actual Average Record
Temperature  
Mean Temperature 40 °F -  
Max Temperature 62 °F 52 °F 75 °F (1968)
Min Temperature 19 °F 29 °F 4 °F (1950)
Degree Days  
Heating Degree Days 24    
Moisture  
Dew Point 18 °F    
Average Humidity 41    
Maximum Humidity 89    
Minimum Humidity 17    
Precipitation  
Precipitation 0.00 in - - ()
Sea Level Pressure  
Sea Level Pressure 30.10 in    
Wind  
Wind Speed 5 mph (SE)    
Max Wind Speed 17 mph    
Max Gust Speed 25 mph    
Visibility 10 miles    
Events      
Averages and records for this station are not official NWS values.
T = Trace of Precipitation, MM = Missing Value Source: NWS Daily Summary

Daily Weather History Graph

Daily Weather History Graph

Search for Another Location

Airport or City:

Trip Planner

Search our weather history database for the weather conditions in past years. The results will help you decide how hot, cold, wet, or windy it might be!

Date:

Astronomy

Apr. 12, 2012 Rise Set
Actual Time 6:37 AM CDT 8:05 PM CDT
Civil Twilight 6:05 AM CDT 8:37 PM CDT
Nautical Twilight 5:27 AM CDT 9:15 PM CDT
Astronomical Twilight 4:46 AM CDT 9:57 PM CDT
Moon 2:06 AM CDT (4/12) 11:20 AM CDT (4/12)
Length of Visible Light 14h 31m
Length of Day
13h 28m
Waning Gibbous, 58% of the Moon is Illuminated
Apr 12
Waning Gibbous
Apr 13
Last Quarter
Apr 21
New
Apr 29
First Quarter
May 5
Full

Hourly Weather History & Observations

Time (CDT) Temp. Windchill Dew Point Humidity Pressure Visibility Wind Dir Wind Speed Gust Speed Precip Events Conditions
12:53 AM 28.0 °F - 18.0 °F 66% 30.22 in 10.0 mi Calm Calm - N/A   Clear
1:53 AM 27.0 °F - 18.0 °F 69% 30.22 in 10.0 mi Calm Calm - N/A   Clear
2:53 AM 27.0 °F - 18.0 °F 69% 30.20 in 10.0 mi Calm Calm - N/A   Clear
3:53 AM 23.0 °F - 17.1 °F 78% 30.19 in 10.0 mi Calm Calm - N/A   Clear
4:53 AM 25.0 °F - 17.1 °F 72% 30.20 in 10.0 mi Calm Calm - N/A   Clear
5:53 AM 24.1 °F - 19.0 °F 81% 30.19 in 10.0 mi Calm Calm - N/A   Clear
6:53 AM 19.9 °F - 17.1 °F 89% 30.19 in 10.0 mi Calm Calm - N/A   Clear
7:53 AM 28.9 °F - 24.1 °F 82% 30.20 in 10.0 mi Calm Calm - N/A   Clear
8:53 AM 39.9 °F 34.5 °F 19.9 °F 45% 30.17 in 10.0 mi ESE 8.1 mph - N/A   Clear
9:53 AM 46.9 °F - 18.0 °F 32% 30.15 in 10.0 mi SE 11.5 mph - N/A   Clear
10:53 AM 52.0 °F - 16.0 °F 24% 30.14 in 10.0 mi South 13.8 mph - N/A   Clear
11:53 AM 55.0 °F - 17.1 °F 23% 30.11 in 10.0 mi South 13.8 mph 19.6 mph N/A   Clear
12:53 PM 57.0 °F - 17.1 °F 21% 30.09 in 10.0 mi SSE 17.3 mph 24.2 mph N/A   Clear
1:53 PM 59.0 °F - 17.1 °F 20% 30.07 in 10.0 mi SSE 11.5 mph - N/A   Clear
2:53 PM 60.1 °F - 16.0 °F 18% 30.05 in 10.0 mi SE 15.0 mph - N/A   Clear
3:53 PM 62.1 °F - 16.0 °F 17% 30.02 in 10.0 mi South 12.7 mph 25.3 mph N/A   Clear
4:53 PM 62.1 °F - 17.1 °F 18% 30.01 in 10.0 mi South 12.7 mph - N/A   Clear
5:53 PM 60.1 °F - 17.1 °F 19% 30.02 in 10.0 mi SSE 13.8 mph - N/A   Clear
6:53 PM 57.9 °F - 18.0 °F 21% 30.03 in 10.0 mi SSE 11.5 mph - N/A   Clear
7:53 PM 55.9 °F - 18.0 °F 23% 30.01 in 10.0 mi ESE 8.1 mph - N/A   Clear
8:53 PM 54.0 °F - 19.0 °F 25% 30.00 in 10.0 mi SE 11.5 mph - N/A   Clear
9:53 PM 53.1 °F - 19.9 °F 27% 30.00 in 10.0 mi SE 8.1 mph - N/A   Overcast
10:53 PM 53.1 °F - 19.9 °F 27% 29.99 in 10.0 mi SE 11.5 mph - N/A   Overcast
11:53 PM 52.0 °F - 19.9 °F 28% 29.98 in 10.0 mi SE 11.5 mph - N/A   Mostly Cloudy